Regional Weather Roundup
Issued by NWS Upton, NY

Current Version | Previous Version | Text Only | Print | Product List | Glossary On
Versions: 1 2 3 4 5 6 7 8 9 10 11 12 13 14 15 16 17 18 19 20 21 22 23 24 25 26 27 28 29 30 31 32 33 34 35 36 37 38 39 40 41 42 43 44 45 46 47 48 49 50
000
ASUS41 KOKX 221008
RWROKX

REGIONAL WEATHER ROUNDUP
NATIONAL WEATHER SERVICE NEW YORK NY
600 AM EDT FRI MAY 22 2015

NOTE: "FAIR" INDICATES FEW OR NO CLOUDS BELOW 12,000 FEET WITH NO
SIGNIFICANT WEATHER AND/OR OBSTRUCTIONS TO VISIBILITY.

NYZ071-072-176-178-NJZ106-104-221100-
NEW YORK CITY METRO AREA


CITY           SKY/WX    TMP DP  RH WIND       PRES   REMARKS
CENTRAL PARK   CLEAR     55  42  61 MISG      29.91R
LAGUARDIA APRT PTCLDY    56  44  64 NW12      29.88R
KENNEDY INTL   PTCLDY    56  42  59 NW8       29.88R
NEWARK/LIBERTY PTCLDY    54  44  69 NW9       29.89R
BRNX BOT. GARD   N/A     54  43  66 W5        29.89R
TETERBORO      CLEAR     53  42  66 NW7       29.88R
$$

NYZ177-179-078>081-221100-
LONG ISLAND NEW YORK

CITY           SKY/WX    TMP DP  RH WIND       PRES   REMARKS
FARMINGDALE    MOCLDY    54  45  71 NW6       29.86R
ISLIP          MOCLDY    51  48  89 NW7       29.84R
SHIRLEY        MOCLDY    49  46  90 NW5       29.86R
WESTHAMPTON    MOCLDY    47  46  97 NW5       29.86R
MONTAUK POINT    N/A     51  49  92 NW3       29.86S
$$

NYZ052-065-067-221100-
HUDSON VALLEY

CITY           SKY/WX    TMP DP  RH WIND       PRES   REMARKS
WHITE PLAINS   PTCLDY    52  43  71 NW12      29.87R
NEWBURGH       CLEAR     46  45  93 W6        29.90R
MONTGOMERY     CLEAR     47  45  93 W3        29.88R
POUGHKEEPSIE   CLEAR     48  45  89 CALM      29.87R
ALBANY         PTCLDY    49  38  65 S3        29.85R
$$

NJZ001-105-106-008-010-013-015-019>022-104-221100-
NEW JERSEY

CITY           SKY/WX    TMP DP  RH WIND       PRES   REMARKS
NEWARK/LIBERTY PTCLDY    54  44  69 NW9       29.89R
TETERBORO      CLEAR     53  42  66 NW7       29.88R
CALDWELL       CLEAR     52  42  69 W6        29.90R
MORRISTOWN     CLEAR     54  43  66 CALM      29.90R
SOMERVILLE     CLEAR     46  43  89 NW3       29.90R FOG
SUSSEX         CLEAR     45  41  86 CALM      29.91R
ANDOVER          N/A     45  44  97 CALM      29.91R
TRENTON        CLEAR     49  44  83 W6        29.92R
MILLVILLE      CLEAR     50  47  89 W9        29.95R FOG
ATLANTIC CITY  CLEAR     48  45  89 NW8       29.93R FOG
WRIGHTSTOWN    CLEAR     49  47  94 NW8       29.90R
TOMS RIVER     CLEAR     48  45  87 NW8       29.91R
BELMAR         PTCLDY    50  43  76 W8        29.90R
$$

PAZ047>061-062-071-221100-
EASTERN PENNSYLVANIA

CITY           SKY/WX    TMP DP  RH WIND       PRES   REMARKS
PHILADELPHIA   CLEAR     53  44  71 W9        29.95R
ALLENTOWN      CLEAR     45  40  82 W6        29.94R
SCRANTON       CLEAR     46  41  82 SW5       29.93R
$$

CTZ002-004>006-009-010-012-RIZ004-006-007-MAZ004-011-015-221100-
SOUTHERN NEW ENGLAND
 IN CT

CITY           SKY/WX    TMP DP  RH WIND       PRES   REMARKS
BRADLEY INTL   MOCLDY    54  45  71 W3        29.84R
HARTFORD       MOCLDY    51  45  79 MISG      29.85R
DANBURY        CLOUDY    53  41  63 CALM      29.87S
WTRBRY/OXFORD  CLOUDY    52  39  62 N8        29.87R
BRIDGEPORT     CLOUDY    54  46  74 NW3       29.85S
MERIDEN        CLOUDY    50  45  83 CALM      29.85S
NEW HAVEN      MOCLDY    53  46  77 N5        29.85R
CHESTER        CLOUDY    48  46  93 NW5       29.85S
GROTON         CLOUDY    50  47  89 NW5       29.84R
WILLIMANTIC    CLOUDY    51  44  77 CALM      29.84S

 IN RI

CITY           SKY/WX    TMP DP  RH WIND       PRES   REMARKS
PROVIDENCE     LGT RAIN  50  47  89 W5        29.83F
BLOCK ISLAND   CLOUDY    48  46  93 NW3       29.85R
WESTERLY       CLOUDY    50  48  93 CALM      29.84F

 IN MA

CITY           SKY/WX    TMP DP  RH WIND       PRES   REMARKS
BOSTON         LGT RAIN  52  44  74 SW9       29.83R
WORCESTER      CLOUDY    51  40  65 NW13      29.83R
WESTFIELD      CLOUDY    54  41  61 CALM      29.83S
PROVINCETOWN   CLOUDY    52  46  82 S6        29.85S
NANTUCKET      LGT RAIN  48  46  93 E8        29.83S
$$

ANZ330-335-338-340-345-350-353-355-221100-
COASTAL MARINE OBSERVATIONS


STATION/POSITION TIME  SKY/WX   TEMP    WIND        PRES    VSBY  WAVE
                                AIR SEA DIR/SP/G                  HT/PER
                 (UTC)          (F)     (DEG/KT/KT) (MB)    (MI)  (FT/S)
NY HARB ENTRANCE 0950            55 56  300/ 14/ 17 1011.1          1/ 8
4S FIRE IS       0903               53                N/A           1/ 9
20S FIRE ISLAND  0950            54 54  310/ 14/ 16 1010.9          1/ 8
GREAT SOUTH BAY  0900            54 62  300/ 10/ 10   N/A
23SW MTP         0950            50 53  330/  8/  8 1010.4          1/ 8
HUDSON CANYON    NOT AVBL
KINGS POINT      0900            56 53  360/  5/  8 1010.4
CENTRAL LI SOUND 0930            52 52  280/  8/ 10   N/A
EASTERN LI SOUND 0900            50     290/  8/ 10   N/A
ROBBINS REEF     0900            56     320/  8/ 10 1010.3
$$


>>>>>>>>>>>>>>>>>>>>>>>>>>>> KEY <<<<<<<<<<<<<<<<<<<<<<<<<<<
>                                                          <
>     SKY/WX - SKY CONDITION/PRESENT WEATHER               <
>     TMP    - TEMPERATURE IN FAHRENHEIT                   <
>     DP     - DEWPOINT IN FAHRENHEIT                      <
>     RH     - RELATIVE HUMIDITY IN PERCENT                <
>     WIND   - DIRECTION AND SPEED IN MPH                  <
>     PRES   - MEAN SEA LEVEL PRESSURE IN INCHES OF HG     <
>     WCI    - WIND CHILL INDEX                            <
>     VSB    - VISIBILITY IN MILES                         <
>     HX     - HEAT INDEX                                  <
>     TC     - TEMPERATURE IN CELSIUS                      <
>     VRB    - VARIABLE WIND DIRECTION                     <
>                                                          <
>>>>>>>>>>>>>>>>>>>>>>>>>>>> KEY <<<<<<<<<<<<<<<<<<<<<<<<<<<




USA.gov is the U.S. government's official web portal to all federal, state and local government web resources and services.